Lid_Strength_Index
13 16 17 15 15 15 16 17 17 15 12 14 14 15 14 14 14 15 15 15 16 16 15 14 14 15 14 14 13 13 12 12 10 10 8 8 9 8 9 9 9 9 8 6
16 18 15 15 15 16 17 17 17 15 13 15 15 15 15 15 16 15 16 16 16 16 15 15 15 15 15 15 14 13 13 13 12 11 11 10 11 11 11 11 11 11 11 10
16 15 13 14 15 16 17 17 17 16 16 16 17 17 17 16 15 15 15 15 15 16 16 15 15 15 15 15 15 14 13 13 13 12 12 13 12 13 13 13 13 12 12 12
16 14 14 16 16 15 17 14 15 16 18 20 17 21 18 16 16 16 16 16 16 15 15 15 15 15 15 16 15 14 14 14 13 13 14 14 15 15 15 14 14 14 13 13
15 15 15 15 15 14 15 15 16 17 19 19 19 20 18 16 17 17 17 16 16 15 15 15 15 15 15 15 16 15 14 14 14 14 14 15 15 15 15 16 16 15 15 14
14 14 14 14 14 13 14 16 16 18 19 21 18 18 19 18 16 17 16 16 15 15 15 15 14 14 15 15 15 15 15 15 14 14 15 15 16 17 17 17 17 16 16 16
16 15 14 14 15 15 15 17 20 21 22 21 18 19 17 16 15 15 15 15 15 15 15 15 15 15 15 15 15 15 16 16 15 15 15 15 16 16 17 17 17 17 17 17
17 18 14 13 14 15 16 16 20 25 23 20 18 19 17 15 14 14 14 14 14 15 14 14 14 15 15 14 14 14 15 15 15 15 15 15 15 16 16 16 17 17 17 16
17 16 14 14 13 13 16 17 15 19 26 23 19 17 15 15 15 15 14 14 14 14 14 14 14 14 15 15 15 14 15 14 14 15 15 15 14 14 15 16 16 17 17 16
14 17 15 14 13 14 14 13 17 18 25 26 21 19 18 17 16 15 15 14 14 14 13 14 14 14 14 14 15 15 14 14 14 14 14 14 14 15 15 15 16 16 16 16
13 14 16 15 15 15 16 16 16 16 18 23 25 20 16 15 14 14 14 13 14 14 14 14 14 14 14 14 14 14 14 14 14 14 14 14 14 14 14 14 14 14 14 15
13 14 18 16 15 14 14 15 15 18 20 19 19 18 13 13 12 13 13 12 13 13 14 14 14 14 14 14 14 14 14 14 14 14 14 14 14 14 14 15 14 14 14 13
12 14 17 17 16 15 15 15 15 15 16 20 20 19 13 13 12 11 12 12 12 13 14 14 14 14 14 14 14 14 14 14 14 14 14 14 14 15 15 15 14 14 14 14
9 14 15 17 17 15 16 15 14 15 18 17 16 16 14 13 12 12 12 12 13 14 15 15 15 15 14 14 14 15 15 15 14 15 14 15 14 14 14 14 14 14 14 14
11 16 15 15 14 15 17 17 15 16 15 17 15 15 13 12 13 14 14 14 15 15 15 15 15 14 14 14 15 15 15 14 14 14 14 14 14 13 14 14 14 14 14 14
14 16 17 18 17 17 17 16 15 16 15 16 15 15 13 14 16 17 16 16 16 15 15 14 14 14 14 14 15 14 14 15 14 15 14 14 14 14 14 15 15 15 15 15
15 16 17 19 21 20 21 20 15 15 15 14 16 14 15 17 15 16 16 15 15 14 14 13 13 14 14 14 14 16 16 15 15 15 15 15 15 16 16 15 16 16 16 16
17 18 19 22 25 24 18 19 18 17 18 17 16 18 17 15 16 15 15 15 14 14 13 13 14 15 14 15 16 16 16 16 16 17 17 16 16 16 16 16 17 17 17 17
16 17 23 21 30 22 19 19 20 19 19 17 17 18 16 16 16 17 14 14 14 13 13 14 13 14 15 16 16 16 16 16 16 16 15 16 16 18 17 19 18 18 19 20
16 16 17 28 25 26 21 19 17 16 23 19 17 18 16 16 20 17 14 13 13 13 13 14 15 15 16 17 16 17 17 17 17 16 16 17 17 19 20 20 21 21 21 21
21 19 19 25 24 25 19 17 16 23 20 18 16 17 16 17 15 14 13 13 13 13 14 15 16 17 17 16 17 17 17 18 17 17 18 18 19 20 21 21 21 22 23 22
22 22 24 22 23 25 16 16 18 15 14 13 14 14 14 13 13 13 13 13 14 15 15 16 17 17 16 16 17 18 18 17 18 19 19 21 22 22 21 23 23 23 23 24
22 19 22 20 20 16 15 14 12 12 13 12 13 12 13 13 13 13 13 14 15 16 16 17 18 18 17 17 18 20 18 18 19 23 24 24 23 22 22 23 23 24 24 24
19 18 21 20 17 16 13 12 12 12 12 12 12 12 13 14 13 13 14 15 15 16 17 18 18 18 19 19 18 21 20 19 26 27 25 22 22 22 22 21 22 24 25 25
18 18 20 19 15 14 13 12 11 11 11 13 13 13 13 13 13 13 14 15 15 16 17 18 18 19 20 20 21 23 21 24 25 24 22 22 22 22 22 21 22 23 22 21
17 17 18 18 13 13 12 11 10 12 12 12 13 14 13 12 12 13 14 15 16 17 18 19 19 20 21 22 22 23 25 27 27 24 22 22 21 21 21 22 22 18 18 17